contact:dominique.lefevre@mio.osupytheas.fr, maurice.libes@osupytheas.fr, didier.mallarino@osupytheas.fr
Project:EMSO http://www.emso-fr.org/EMSO-France
Depth: 2436.0 m
Title:EMSO Ligure Ouest : Data MII capteur AQUADOPP
Date,Latitude,Longitude,X_East,Y_North,Z_Up,Amplitude_X,Amplitude_Y,Amplitude_Z,Batterie,SoundSpeed,Heading,Pitch,Roll,Pressure,TIS,Speed,Direction
, degrees North, degrees East, m.s-1, m.s-1,m.s-1, 1, 1, 1, Volt, m.s-1, degree, degree, degree, dbar, degree_C, m.s-1, degree
2020-08-15T00:04:02,42.805,6.029,0.014,0.024,-0.026,102.0,113.0,101.0,13.4,1505.2,326.1,-0.8,1.8,2470.418,13.3,0.027,30.3
2020-08-15T00:07:02,42.805,6.029,0.036,0.02,-0.028,103.0,114.0,102.0,13.4,1505.3,324.8,-0.7,1.9,2470.379,13.31,0.041,60.9
2020-08-15T00:10:03,42.805,6.029,0.053,-0.002,-0.015,103.0,113.0,101.0,13.3,1505.3,327.7,-0.7,1.8,2470.407,13.31,0.053,92.2
2020-08-15T00:13:02,42.805,6.029,0.035,-0.008,-0.023,104.0,114.0,101.0,13.4,1505.3,328.0,-0.7,1.8,2470.399,13.32,0.035,102.9
2020-08-15T00:16:03,42.805,6.029,0.034,0.001,-0.038,102.0,112.0,102.0,13.4,1505.3,324.7,-0.7,1.8,2470.415,13.32,0.034,88.3
2020-08-15T00:19:02,42.805,6.029,0.048,0.0,-0.003,103.0,113.0,101.0,13.4,1505.3,326.5,-0.7,1.8,2470.409,13.32,0.048,90.0
2020-08-15T00:22:02,42.805,6.029,0.033,-0.004,-0.018,103.0,112.0,101.0,13.4,1505.3,327.6,-0.7,1.8,2470.351,13.32,0.033,96.9
2020-08-15T00:25:02,42.805,6.029,0.027,-0.012,-0.026,101.0,118.0,103.0,13.4,1505.3,324.6,-0.7,1.8,2470.37,13.32,0.029,114.0
2020-08-15T00:28:03,42.805,6.029,0.048,0.002,-0.032,103.0,113.0,101.0,13.4,1505.3,327.1,-0.7,1.9,2470.366,13.32,0.048,87.6
2020-08-15T00:31:02,42.805,6.029,0.022,-0.001,-0.04,103.0,116.0,102.0,13.4,1505.3,327.6,-0.7,1.8,2470.411,13.32,0.022,92.6
2020-08-15T00:34:02,42.805,6.029,0.032,0.012,0.008,104.0,116.0,101.0,13.3,1505.3,327.4,-0.7,1.9,2470.355,13.32,0.034,69.4
2020-08-15T00:37:02,42.805,6.029,0.008,-0.004,-0.029,104.0,112.0,100.0,13.4,1505.3,325.5,-0.7,1.8,2470.352,13.32,0.008,116.6
2020-08-15T00:40:03,42.805,6.029,0.048,0.0,-0.021,103.0,114.0,99.0,13.4,1505.3,323.4,-0.7,1.8,2470.409,13.32,0.048,90.0
2020-08-15T00:43:02,42.805,6.029,0.039,0.018,0.032,103.0,114.0,101.0,13.3,1505.3,326.4,-0.7,1.8,2470.405,13.32,0.042,65.2
2020-08-15T00:46:03,42.805,6.029,0.065,-0.026,-0.004,103.0,108.0,101.0,13.3,1505.3,324.4,-0.7,1.8,2470.382,13.32,0.07,111.8
2020-08-15T00:49:03,42.805,6.029,0.052,-0.008,0.012,103.0,110.0,100.0,13.4,1505.3,325.1,-0.7,1.9,2470.377,13.32,0.052,98.7
2020-08-15T00:52:02,42.805,6.029,0.051,-0.012,-0.019,101.0,109.0,101.0,13.4,1505.3,324.4,-0.7,1.9,2470.34,13.32,0.052,103.2
2020-08-15T00:55:03,42.805,6.029,0.04,-0.008,-0.012,103.0,112.0,100.0,13.4,1505.3,327.7,-0.7,1.8,2470.385,13.32,0.04,101.3
2020-08-15T00:58:03,42.805,6.029,0.049,-0.008,-0.015,103.0,114.0,100.0,13.4,1505.3,324.9,-0.7,1.9,2470.338,13.32,0.049,99.3
2020-08-15T01:04:02,42.805,6.029,0.018,-0.008,0.01,104.0,113.0,101.0,13.3,1505.2,324.5,-0.7,1.8,2470.42,13.3,0.019,114.0
2020-08-15T01:07:03,42.805,6.029,0.054,-0.004,0.002,102.0,116.0,101.0,13.4,1505.3,324.0,-0.7,1.8,2470.432,13.31,0.054,94.2
2020-08-15T01:10:03,42.805,6.029,0.031,0.0,-0.009,102.0,115.0,101.0,13.3,1505.3,324.7,-0.7,1.8,2470.432,13.31,0.03,90.0
2020-08-15T01:13:03,42.805,6.029,0.033,-0.016,0.012,103.0,113.0,101.0,13.3,1505.3,326.7,-0.7,1.8,2470.425,13.32,0.036,115.9
2020-08-15T01:16:03,42.805,6.029,0.028,-0.005,-0.011,102.0,114.0,101.0,13.4,1505.3,326.7,-0.7,1.8,2470.441,13.32,0.028,100.1
2020-08-15T01:19:03,42.805,6.029,0.041,0.024,0.003,103.0,112.0,101.0,13.4,1505.3,323.3,-0.7,1.8,2470.394,13.32,0.047,59.7
2020-08-15T01:22:02,42.805,6.029,0.041,0.009,-0.02,104.0,116.0,101.0,13.4,1505.3,324.9,-0.7,1.9,2470.409,13.32,0.041,77.6
2020-08-15T01:25:02,42.805,6.029,0.02,-0.006,-0.028,103.0,116.0,102.0,13.3,1505.3,327.9,-0.7,1.8,2470.432,13.32,0.02,106.7
2020-08-15T01:28:03,42.805,6.029,0.047,-0.009,0.008,103.0,112.0,102.0,13.4,1505.3,326.3,-0.7,1.8,2470.413,13.32,0.047,100.8
2020-08-15T01:31:02,42.805,6.029,0.043,0.001,-0.019,103.0,116.0,101.0,13.3,1505.3,325.5,-0.7,1.8,2470.397,13.32,0.043,88.7
2020-08-15T01:34:02,42.805,6.029,0.034,0.0,-0.032,103.0,112.0,100.0,13.4,1505.3,326.7,-0.7,1.8,2470.387,13.32,0.034,90.0
2020-08-15T01:37:02,42.805,6.029,0.033,-0.023,0.018,103.0,116.0,102.0,13.4,1505.3,328.4,-0.7,1.8,2470.382,13.32,0.04,124.9
2020-08-15T01:40:03,42.805,6.029,0.051,-0.011,-0.014,103.0,114.0,101.0,13.4,1505.3,323.3,-0.7,1.8,2470.391,13.32,0.052,102.2
2020-08-15T01:43:03,42.805,6.029,0.051,-0.023,0.019,103.0,115.0,100.0,13.3,1505.3,324.8,-0.7,1.8,2470.406,13.32,0.055,114.3
2020-08-15T01:46:03,42.805,6.029,0.046,0.001,-0.002,103.0,114.0,101.0,13.4,1505.3,325.1,-0.7,1.8,2470.429,13.32,0.046,88.8
2020-08-15T01:49:03,42.805,6.029,0.054,0.01,0.017,103.0,115.0,101.0,13.4,1505.3,326.6,-0.7,1.8,2470.383,13.32,0.054,79.5
2020-08-15T01:52:02,42.805,6.029,0.037,0.004,0.012,104.0,114.0,101.0,13.4,1505.3,326.9,-0.7,1.8,2470.365,13.32,0.037,83.8
2020-08-15T01:55:03,42.805,6.029,0.058,-0.005,-0.012,102.0,114.0,102.0,13.4,1505.3,326.1,-0.7,1.8,2470.361,13.32,0.058,94.9
2020-08-15T01:58:03,42.805,6.029,0.062,0.0,0.009,102.0,114.0,101.0,13.3,1505.3,327.9,-0.7,1.8,2470.396,13.32,0.061,90.0
2020-08-15T02:04:02,42.805,6.029,0.038,0.008,0.036,103.0,113.0,99.0,13.4,1505.2,327.0,-0.7,1.8,2470.47,13.3,0.038,78.1
2020-08-15T02:07:02,42.805,6.029,0.04,-0.016,-0.004,102.0,115.0,100.0,13.4,1505.3,325.6,-0.7,1.8,2470.397,13.31,0.043,111.8
2020-08-15T02:10:03,42.805,6.029,0.035,-0.008,-0.01,104.0,112.0,101.0,13.3,1505.3,323.7,-0.7,1.8,2470.407,13.31,0.035,102.9
2020-08-15T02:13:03,42.805,6.029,0.056,-0.008,0.035,102.0,114.0,101.0,13.4,1505.3,326.9,-0.7,1.8,2470.423,13.32,0.056,98.1
2020-08-15T02:16:03,42.805,6.029,0.041,0.004,-0.019,103.0,118.0,101.0,13.4,1505.3,327.5,-0.7,1.8,2470.423,13.32,0.041,84.4
2020-08-15T02:19:02,42.805,6.029,0.028,-0.002,-0.024,102.0,115.0,101.0,13.4,1505.3,324.4,-0.7,1.8,2470.431,13.32,0.028,94.1
2020-08-15T02:22:02,42.805,6.029,0.012,0.0,-0.011,102.0,116.0,100.0,13.4,1505.3,325.4,-0.7,1.8,2470.395,13.32,0.012,90.0
2020-08-15T02:25:03,42.805,6.029,0.05,0.004,0.017,103.0,113.0,100.0,13.4,1505.3,324.7,-0.7,1.9,2470.387,13.32,0.05,85.4
2020-08-15T02:28:02,42.805,6.029,0.039,-0.005,-0.016,102.0,116.0,101.0,13.4,1505.3,326.2,-0.7,1.9,2470.335,13.32,0.039,97.3
2020-08-15T02:31:02,42.805,6.029,0.036,0.009,-0.013,102.0,117.0,102.0,13.4,1505.3,323.6,-0.7,1.9,2470.431,13.32,0.037,76.0
2020-08-15T02:34:03,42.805,6.029,0.044,0.015,0.0,103.0,116.0,100.0,13.3,1505.3,325.2,-0.7,1.8,2470.39,13.32,0.046,71.2
2020-08-15T02:37:02,42.805,6.029,0.037,-0.01,-0.016,102.0,116.0,101.0,13.4,1505.3,325.0,-0.7,1.8,2470.376,13.32,0.038,105.1
2020-08-15T02:40:02,42.805,6.029,0.031,-0.012,-0.016,102.0,113.0,101.0,13.4,1505.3,324.6,-0.7,1.8,2470.374,13.32,0.033,111.2
2020-08-15T02:43:03,42.805,6.029,0.045,-0.006,-0.024,104.0,117.0,101.0,13.3,1505.3,326.4,-0.7,1.8,2470.398,13.32,0.045,97.6
2020-08-15T02:46:03,42.805,6.029,0.018,0.013,0.013,102.0,116.0,101.0,13.4,1505.3,327.6,-0.7,1.8,2470.401,13.32,0.022,54.2
2020-08-15T02:49:03,42.805,6.029,0.023,0.006,-0.006,103.0,115.0,101.0,13.4,1505.3,327.8,-0.8,1.8,2470.394,13.32,0.023,75.4
2020-08-15T02:52:02,42.805,6.029,0.047,-0.006,0.003,102.0,115.0,101.0,13.4,1505.3,325.4,-0.7,1.8,2470.409,13.32,0.047,97.3
2020-08-15T02:55:03,42.805,6.029,0.034,-0.008,-0.013,103.0,117.0,101.0,13.4,1505.3,328.3,-0.7,1.8,2470.411,13.32,0.034,103.2
2020-08-15T02:58:03,42.805,6.029,0.066,-0.01,0.006,102.0,116.0,100.0,13.3,1505.3,328.1,-0.7,1.8,2470.373,13.32,0.066,98.6
2020-08-15T03:04:02,42.805,6.029,0.043,-0.004,-0.005,103.0,114.0,101.0,13.4,1505.2,326.8,-0.7,1.8,2470.464,13.3,0.043,95.3
2020-08-15T03:07:02,42.805,6.029,0.045,-0.006,-0.01,102.0,116.0,101.0,13.4,1505.3,324.0,-0.7,1.9,2470.421,13.31,0.045,97.6
2020-08-15T03:10:02,42.805,6.029,0.028,0.014,-0.013,102.0,118.0,101.0,13.4,1505.3,327.7,-0.7,1.8,2470.416,13.31,0.031,63.4
2020-08-15T03:13:02,42.805,6.029,0.047,0.0,0.003,103.0,119.0,99.0,13.4,1505.3,325.1,-0.7,1.8,2470.446,13.32,0.047,90.0
2020-08-15T03:16:02,42.805,6.029,0.037,0.009,0.037,104.0,116.0,100.0,13.4,1505.3,324.5,-0.7,1.8,2470.407,13.32,0.038,76.3
2020-08-15T03:19:03,42.805,6.029,0.057,-0.01,-0.017,104.0,118.0,100.0,13.4,1505.3,327.0,-0.7,1.9,2470.426,13.32,0.057,99.9
2020-08-15T03:22:02,42.805,6.029,0.043,-0.011,-0.01,103.0,116.0,101.0,13.4,1505.3,326.2,-0.7,1.8,2470.415,13.32,0.044,104.3
2020-08-15T03:25:02,42.805,6.029,0.036,-0.002,-0.03,102.0,117.0,100.0,13.4,1505.3,325.8,-0.7,1.9,2470.462,13.32,0.036,93.2
2020-08-15T03:28:03,42.805,6.029,0.027,0.02,0.0,103.0,117.0,101.0,13.3,1505.3,323.0,-0.7,1.8,2470.421,13.32,0.033,53.5
2020-08-15T03:31:02,42.805,6.029,0.061,0.01,-0.001,103.0,113.0,101.0,13.4,1505.3,322.7,-0.7,1.8,2470.445,13.32,0.061,80.7
2020-08-15T03:34:03,42.805,6.029,0.047,0.0,-0.037,101.0,118.0,100.0,13.4,1505.3,323.6,-0.7,1.8,2470.42,13.32,0.047,90.0
2020-08-15T03:37:02,42.805,6.029,0.039,-0.003,-0.007,101.0,117.0,102.0,13.4,1505.3,323.4,-0.7,1.8,2470.372,13.32,0.039,94.4
2020-08-15T03:40:03,42.805,6.029,0.031,0.007,0.014,103.0,116.0,98.0,13.3,1505.3,327.1,-0.7,1.8,2470.402,13.32,0.031,77.3
2020-08-15T03:43:03,42.805,6.029,0.041,-0.004,0.015,103.0,112.0,101.0,13.4,1505.3,327.3,-0.7,1.9,2470.382,13.32,0.041,95.6
2020-08-15T03:46:03,42.805,6.029,0.045,0.005,0.007,101.0,116.0,101.0,13.4,1505.3,327.6,-0.7,1.8,2470.424,13.32,0.045,83.7
2020-08-15T03:49:03,42.805,6.029,0.029,-0.008,0.009,103.0,116.0,100.0,13.4,1505.3,325.9,-0.7,1.8,2470.414,13.32,0.03,105.4
2020-08-15T03:52:02,42.805,6.029,0.041,0.006,0.0,102.0,116.0,99.0,13.4,1505.3,322.4,-0.7,1.8,2470.409,13.32,0.041,81.7
2020-08-15T03:55:03,42.805,6.029,0.018,0.018,-0.009,103.0,116.0,100.0,13.4,1505.3,327.2,-0.7,1.8,2470.415,13.32,0.025,45.0
2020-08-15T03:58:03,42.805,6.029,0.036,-0.005,-0.037,101.0,120.0,101.0,13.4,1505.3,324.1,-0.7,1.8,2470.395,13.32,0.036,97.9
2020-08-15T04:04:02,42.805,6.029,0.055,-0.009,0.015,102.0,117.0,100.0,13.4,1505.2,324.9,-0.8,1.8,2470.46,13.3,0.055,99.3
2020-08-15T04:10:02,42.805,6.029,0.05,-0.014,0.004,103.0,114.0,100.0,13.3,1505.2,327.5,-0.8,1.9,2470.447,13.29,0.051,105.6
2020-08-15T04:13:03,42.805,6.029,0.052,-0.011,0.011,102.0,117.0,100.0,13.4,1505.2,328.5,-0.7,1.8,2470.434,13.3,0.053,101.9
2020-08-15T04:16:02,42.805,6.029,0.018,-0.021,-0.012,103.0,113.0,100.0,13.4,1505.3,328.4,-0.7,1.8,2470.428,13.31,0.027,139.4
2020-08-15T04:19:03,42.805,6.029,0.026,-0.005,0.008,101.0,117.0,101.0,13.4,1505.3,325.3,-0.7,1.8,2470.446,13.31,0.026,100.9
2020-08-15T04:22:02,42.805,6.029,0.055,0.002,0.039,103.0,114.0,102.0,13.4,1505.3,325.7,-0.7,1.8,2470.399,13.32,0.055,87.9
2020-08-15T04:25:03,42.805,6.029,0.034,0.016,-0.005,104.0,112.0,100.0,13.4,1505.3,323.0,-0.7,1.8,2470.441,13.32,0.037,64.8
2020-08-15T04:28:03,42.805,6.029,0.039,-0.033,-0.033,104.0,115.0,100.0,13.4,1505.3,327.7,-0.7,1.8,2470.446,13.32,0.051,130.2
2020-08-15T04:31:03,42.805,6.029,0.043,0.009,0.005,101.0,114.0,102.0,13.3,1505.3,325.0,-0.7,1.9,2470.45,13.32,0.043,78.2
2020-08-15T04:34:03,42.805,6.029,0.017,-0.017,0.006,101.0,114.0,100.0,13.3,1505.3,324.1,-0.7,1.8,2470.429,13.32,0.024,135.0
2020-08-15T04:37:02,42.805,6.029,0.067,-0.015,-0.022,102.0,116.0,101.0,13.4,1505.3,325.5,-0.7,1.8,2470.431,13.32,0.068,102.6
2020-08-15T04:40:02,42.805,6.029,0.055,-0.012,0.013,101.0,114.0,101.0,13.4,1505.3,324.9,-0.7,1.8,2470.38,13.32,0.056,102.3
2020-08-15T04:43:03,42.805,6.029,0.031,-0.003,-0.008,103.0,115.0,100.0,13.4,1505.3,326.0,-0.7,1.8,2470.433,13.32,0.031,95.5
2020-08-15T04:46:03,42.805,6.029,0.034,-0.023,0.011,102.0,114.0,101.0,13.3,1505.3,326.7,-0.7,1.9,2470.401,13.32,0.041,124.1
2020-08-15T04:49:03,42.805,6.029,0.043,-0.023,-0.032,103.0,114.0,101.0,13.4,1505.3,323.5,-0.7,1.8,2470.432,13.32,0.048,118.1
2020-08-15T04:52:02,42.805,6.029,0.052,0.0,0.015,103.0,115.0,100.0,13.4,1505.3,323.0,-0.7,1.8,2470.422,13.32,0.052,90.0
2020-08-15T04:55:03,42.805,6.029,0.035,-0.017,-0.03,102.0,115.0,101.0,13.4,1505.3,322.9,-0.7,1.8,2470.389,13.32,0.038,115.9
2020-08-15T04:58:03,42.805,6.029,0.052,-0.004,0.0,101.0,116.0,100.0,13.4,1505.3,326.9,-0.7,1.8,2470.439,13.32,0.052,94.4
2020-08-15T05:04:02,42.805,6.029,0.038,0.001,-0.045,103.0,112.0,101.0,13.4,1505.2,323.2,-0.7,1.9,2470.428,13.3,0.038,88.5
2020-08-15T05:07:02,42.805,6.029,0.044,-0.007,0.015,101.0,117.0,100.0,13.3,1505.3,325.9,-0.7,1.8,2470.406,13.31,0.044,99.0
2020-08-15T05:10:03,42.805,6.029,0.03,-0.015,-0.008,101.0,114.0,101.0,13.3,1505.3,326.7,-0.7,1.8,2470.406,13.31,0.033,116.6
2020-08-15T05:13:03,42.805,6.029,0.039,-0.015,0.027,101.0,114.0,101.0,13.4,1505.3,326.3,-0.7,1.8,2470.406,13.32,0.041,111.0
2020-08-15T05:16:03,42.805,6.029,0.022,-0.005,-0.033,103.0,115.0,100.0,13.4,1505.3,327.7,-0.7,1.8,2470.423,13.32,0.022,102.8
2020-08-15T05:19:03,42.805,6.029,0.033,0.0,0.012,102.0,115.0,101.0,13.4,1505.3,325.6,-0.7,1.8,2470.456,13.32,0.033,90.0
2020-08-15T05:22:02,42.805,6.029,0.034,-0.008,-0.012,102.0,116.0,100.0,13.3,1505.3,326.1,-0.7,1.9,2470.405,13.32,0.034,103.2
2020-08-15T05:25:02,42.805,6.029,0.058,-0.014,0.026,103.0,114.0,100.0,13.4,1505.3,325.6,-0.7,1.8,2470.397,13.32,0.059,103.6
2020-08-15T05:28:03,42.805,6.029,0.025,0.0,-0.009,102.0,116.0,101.0,13.4,1505.3,327.1,-0.7,1.8,2470.412,13.32,0.025,90.0
2020-08-15T05:31:03,42.805,6.029,0.044,0.001,0.015,102.0,116.0,101.0,13.3,1505.3,323.7,-0.7,1.8,2470.418,13.32,0.044,88.7
2020-08-15T05:34:03,42.805,6.029,0.055,-0.001,0.021,102.0,116.0,101.0,13.3,1505.3,326.0,-0.7,1.8,2470.387,13.32,0.055,91.0
2020-08-15T05:37:02,42.805,6.029,0.024,-0.005,-0.043,104.0,114.0,101.0,13.4,1505.3,324.4,-0.7,1.8,2470.414,13.32,0.024,101.8
2020-08-15T05:40:03,42.805,6.029,0.044,0.009,-0.002,103.0,115.0,100.0,13.4,1505.3,327.0,-0.7,1.8,2470.41,13.32,0.044,78.4
2020-08-15T05:43:02,42.805,6.029,0.055,-0.003,0.001,103.0,115.0,100.0,13.4,1505.3,325.5,-0.7,1.8,2470.355,13.32,0.055,93.1
2020-08-15T05:46:03,42.805,6.029,0.039,0.014,-0.003,103.0,114.0,101.0,13.3,1505.3,326.3,-0.7,1.8,2470.43,13.32,0.041,70.3
2020-08-15T05:49:02,42.805,6.029,0.051,0.011,-0.009,102.0,114.0,100.0,13.3,1505.3,323.7,-0.7,1.8,2470.384,13.32,0.052,77.8
2020-08-15T05:52:02,42.805,6.029,0.056,-0.015,-0.035,102.0,114.0,100.0,13.4,1505.3,327.1,-0.7,1.9,2470.394,13.32,0.057,105.0
2020-08-15T05:55:03,42.805,6.029,0.045,-0.016,0.0,102.0,110.0,101.0,13.4,1505.3,325.3,-0.6,1.8,2470.393,13.32,0.047,109.6
2020-08-15T05:58:03,42.805,6.029,0.051,-0.005,0.03,104.0,116.0,101.0,13.3,1505.3,326.5,-0.7,1.8,2470.364,13.32,0.051,95.6
2020-08-15T06:04:02,42.805,6.029,0.037,-0.003,-0.009,102.0,114.0,100.0,13.4,1505.2,324.8,-0.7,1.9,2470.424,13.3,0.037,94.6
2020-08-15T06:07:02,42.805,6.029,0.038,-0.002,-0.015,102.0,115.0,100.0,13.3,1505.3,325.9,-0.7,1.8,2470.391,13.31,0.038,93.0
2020-08-15T06:10:03,42.805,6.029,0.054,0.009,0.002,102.0,113.0,100.0,13.3,1505.3,324.4,-0.7,1.8,2470.402,13.31,0.054,80.5
2020-08-15T06:13:03,42.805,6.029,0.034,-0.024,-0.059,103.0,115.0,100.0,13.4,1505.3,325.7,-0.7,1.8,2470.414,13.32,0.041,125.2
2020-08-15T06:16:03,42.805,6.029,0.056,-0.015,-0.001,104.0,114.0,99.0,13.3,1505.3,323.9,-0.7,1.9,2470.412,13.32,0.057,105.0
2020-08-15T06:19:03,42.805,6.029,0.054,-0.011,-0.008,103.0,113.0,101.0,13.4,1505.3,324.5,-0.7,1.8,2470.427,13.32,0.055,101.5
2020-08-15T06:22:02,42.805,6.029,0.041,0.0,-0.011,102.0,115.0,100.0,13.3,1505.3,324.2,-0.7,1.8,2470.434,13.32,0.041,90.0
2020-08-15T06:25:03,42.805,6.029,0.07,-0.041,0.003,101.0,112.0,101.0,13.4,1505.3,325.2,-0.7,1.8,2470.378,13.32,0.081,120.4
2020-08-15T06:28:03,42.805,6.029,0.05,-0.008,-0.006,102.0,113.0,100.0,13.4,1505.3,326.7,-0.7,1.8,2470.374,13.32,0.05,99.1
2020-08-15T06:31:03,42.805,6.029,0.083,-0.003,-0.023,103.0,111.0,100.0,13.4,1505.3,325.5,-0.7,1.8,2470.411,13.32,0.083,92.1
2020-08-15T06:34:03,42.805,6.029,0.04,-0.005,-0.006,102.0,111.0,101.0,13.4,1505.3,323.4,-0.7,1.8,2470.41,13.32,0.04,97.1
2020-08-15T06:37:02,42.805,6.029,0.055,0.015,0.01,102.0,113.0,100.0,13.4,1505.3,324.4,-0.7,1.8,2470.333,13.32,0.057,74.7
2020-08-15T06:40:03,42.805,6.029,0.025,-0.003,0.007,103.0,111.0,99.0,13.4,1505.3,322.6,-0.7,1.8,2470.361,13.32,0.025,96.8
2020-08-15T06:43:03,42.805,6.029,0.053,-0.012,-0.031,104.0,114.0,100.0,13.4,1505.3,324.9,-0.7,1.8,2470.385,13.32,0.054,102.8
2020-08-15T06:49:02,42.805,6.029,0.049,-0.03,0.029,104.0,115.0,99.0,13.3,1505.2,326.8,-0.7,1.8,2470.411,13.3,0.057,121.5
2020-08-15T06:52:02,42.805,6.029,0.036,-0.018,-0.022,103.0,114.0,101.0,13.3,1505.3,324.7,-0.7,1.9,2470.353,13.31,0.04,116.6
2020-08-15T06:55:03,42.805,6.029,0.047,-0.009,-0.022,103.0,110.0,100.0,13.4,1505.3,325.0,-0.8,1.8,2470.409,13.31,0.047,100.8
2020-08-15T06:58:03,42.805,6.029,0.034,-0.017,-0.007,103.0,113.0,101.0,13.3,1505.3,326.4,-0.7,1.8,2470.382,13.32,0.038,116.6
2020-08-15T07:04:02,42.805,6.029,0.043,-0.016,0.004,103.0,112.0,101.0,13.3,1505.2,327.9,-0.8,1.8,2470.414,13.3,0.045,110.4
2020-08-15T07:07:02,42.805,6.029,0.066,-0.021,0.027,103.0,111.0,100.0,13.4,1505.3,326.8,-0.7,1.8,2470.394,13.31,0.069,107.6
2020-08-15T07:10:03,42.805,6.029,0.078,-0.006,0.017,103.0,111.0,101.0,13.4,1505.3,324.3,-0.7,1.9,2470.354,13.31,0.078,94.4
2020-08-15T07:13:03,42.805,6.029,0.039,0.001,-0.029,104.0,109.0,101.0,13.4,1505.3,322.7,-0.7,1.8,2470.351,13.32,0.039,88.5
2020-08-15T07:16:03,42.805,6.029,0.046,-0.011,-0.002,102.0,110.0,101.0,13.3,1505.3,324.9,-0.7,1.8,2470.394,13.32,0.047,103.4
2020-08-15T07:19:03,42.805,6.029,0.067,-0.02,0.006,103.0,110.0,101.0,13.4,1505.3,326.1,-0.7,1.8,2470.392,13.32,0.069,106.6
2020-08-15T07:22:02,42.805,6.029,0.046,-0.003,0.0,102.0,111.0,100.0,13.4,1505.3,325.2,-0.7,1.8,2470.394,13.32,0.046,93.7
2020-08-15T07:25:03,42.805,6.029,0.029,-0.02,0.008,103.0,109.0,101.0,13.4,1505.3,326.6,-0.7,1.8,2470.345,13.32,0.035,124.6
2020-08-15T07:28:03,42.805,6.029,0.057,-0.017,0.005,103.0,108.0,100.0,13.4,1505.3,326.8,-0.7,1.8,2470.378,13.32,0.059,106.6
2020-08-15T07:31:03,42.805,6.029,0.05,-0.007,0.003,103.0,107.0,100.0,13.4,1505.3,326.9,-0.7,1.8,2470.374,13.32,0.05,98.0
2020-08-15T07:34:04,42.805,6.029,0.053,-0.011,0.001,103.0,112.0,99.0,13.4,1505.3,326.9,-0.7,1.8,2470.349,13.32,0.054,101.7
2020-08-15T07:37:02,42.805,6.029,0.037,-0.023,0.013,102.0,112.0,101.0,13.4,1505.3,326.2,-0.7,1.8,2470.309,13.32,0.043,121.9
2020-08-15T07:40:03,42.805,6.029,0.044,-0.012,-0.006,103.0,109.0,101.0,13.4,1505.3,327.5,-0.7,1.8,2470.339,13.32,0.045,105.3
2020-08-15T07:43:03,42.805,6.029,0.029,-0.027,-0.012,104.0,110.0,99.0,13.3,1505.3,322.6,-0.7,1.8,2470.325,13.32,0.039,133.0
2020-08-15T07:46:03,42.805,6.029,0.064,-0.01,-0.008,102.0,108.0,101.0,13.3,1505.3,324.1,-0.7,1.8,2470.33,13.32,0.064,98.9
2020-08-15T07:49:02,42.805,6.029,0.053,-0.031,0.013,104.0,109.0,100.0,13.4,1505.3,327.2,-0.7,1.8,2470.354,13.32,0.061,120.3
2020-08-15T07:52:02,42.805,6.029,0.03,-0.029,0.001,103.0,105.0,100.0,13.3,1505.3,325.2,-0.7,1.8,2470.351,13.32,0.041,134.0
2020-08-15T07:55:03,42.805,6.029,0.055,0.001,0.0,104.0,111.0,99.0,13.4,1505.3,323.8,-0.7,1.8,2470.353,13.32,0.055,89.0
2020-08-15T07:58:02,42.805,6.029,0.05,-0.034,0.042,102.0,108.0,100.0,13.4,1505.3,327.3,-0.7,1.8,2470.352,13.32,0.06,124.2
2020-08-15T08:01:02,42.805,6.029,0.033,-0.014,-0.011,102.0,109.0,101.0,13.3,1505.3,326.9,-0.7,1.8,2470.337,13.32,0.035,113.0
2020-08-15T08:04:02,42.805,6.029,0.06,-0.005,0.022,102.0,107.0,101.0,13.3,1505.3,325.4,-0.7,1.8,2470.332,13.32,0.06,94.8
2020-08-15T08:07:03,42.805,6.029,0.046,-0.004,0.045,102.0,107.0,100.0,13.4,1505.3,323.1,-0.7,1.8,2470.375,13.32,0.046,95.0
2020-08-15T08:10:02,42.805,6.029,0.068,-0.012,0.013,103.0,108.0,100.0,13.3,1505.3,324.7,-0.7,1.8,2470.328,13.32,0.069,100.0
2020-08-15T08:13:03,42.805,6.029,0.06,-0.021,-0.008,101.0,108.0,101.0,13.4,1505.3,324.5,-0.7,1.8,2470.313,13.32,0.063,109.3
2020-08-15T08:16:03,42.805,6.029,0.023,-0.031,-0.031,102.0,106.0,101.0,13.3,1505.3,326.0,-0.7,1.8,2470.354,13.32,0.038,143.4
2020-08-15T08:19:03,42.805,6.029,0.042,-0.004,0.024,102.0,109.0,101.0,13.4,1505.3,326.0,-0.7,1.8,2470.33,13.32,0.042,95.4
2020-08-15T08:22:02,42.805,6.029,0.053,-0.021,0.001,102.0,107.0,101.0,13.4,1505.3,325.6,-0.7,1.8,2470.34,13.32,0.057,111.6
2020-08-15T08:25:03,42.805,6.029,0.044,-0.029,0.032,102.0,112.0,101.0,13.4,1505.3,322.9,-0.7,1.8,2470.299,13.32,0.052,123.4
2020-08-15T08:28:03,42.805,6.029,0.027,-0.008,0.02,104.0,111.0,101.0,13.4,1505.3,325.0,-0.7,1.9,2470.326,13.32,0.028,106.5
2020-08-15T08:31:03,42.805,6.029,0.06,-0.009,0.01,103.0,108.0,100.0,13.4,1505.3,326.9,-0.7,1.8,2470.358,13.32,0.06,98.5
2020-08-15T08:34:03,42.805,6.029,0.03,-0.005,0.015,103.0,110.0,100.0,13.3,1505.3,327.1,-0.8,1.9,2470.297,13.32,0.03,99.5
2020-08-15T08:37:02,42.805,6.029,0.059,-0.012,0.046,103.0,107.0,100.0,13.4,1505.3,328.2,-0.7,1.8,2470.35,13.32,0.06,101.5
2020-08-15T08:40:03,42.805,6.029,0.035,-0.012,-0.011,101.0,112.0,100.0,13.4,1505.3,325.8,-0.7,1.8,2470.319,13.32,0.037,108.9
2020-08-15T08:43:03,42.805,6.029,0.056,-0.015,-0.024,101.0,113.0,101.0,13.4,1505.3,327.7,-0.7,1.8,2470.329,13.32,0.057,105.0
2020-08-15T08:46:03,42.805,6.029,0.035,-0.014,-0.023,102.0,110.0,100.0,13.3,1505.3,326.9,-0.7,1.8,2470.397,13.32,0.037,111.8
2020-08-15T08:49:03,42.805,6.029,0.074,-0.006,0.035,103.0,108.0,101.0,13.4,1505.3,326.7,-0.7,1.9,2470.303,13.32,0.074,94.6
2020-08-15T08:52:02,42.805,6.029,0.056,-0.012,0.007,102.0,107.0,101.0,13.4,1505.3,325.1,-0.7,1.8,2470.311,13.32,0.057,102.1
2020-08-15T08:55:03,42.805,6.029,0.039,-0.007,-0.006,101.0,109.0,101.0,13.4,1505.3,327.7,-0.7,1.8,2470.313,13.32,0.039,100.2
2020-08-15T08:58:03,42.805,6.029,0.062,-0.003,-0.01,103.0,110.0,100.0,13.3,1505.3,327.0,-0.7,1.8,2470.328,13.32,0.062,92.8
2020-08-15T09:04:02,42.805,6.029,0.055,-0.02,0.013,102.0,106.0,100.0,13.3,1505.2,326.6,-0.7,1.8,2470.342,13.3,0.058,110.0
2020-08-15T09:07:03,42.805,6.029,0.07,-0.01,0.016,103.0,108.0,101.0,13.4,1505.3,328.3,-0.7,1.8,2470.297,13.31,0.07,98.1
2020-08-15T09:10:03,42.805,6.029,0.066,-0.025,0.017,103.0,106.0,100.0,13.4,1505.3,325.5,-0.8,1.8,2470.325,13.31,0.07,110.7
2020-08-15T09:13:03,42.805,6.029,0.058,-0.018,0.0,102.0,109.0,99.0,13.4,1505.3,326.4,-0.7,1.8,2470.333,13.32,0.06,107.2
2020-08-15T09:16:03,42.805,6.029,0.049,0.001,-0.003,103.0,105.0,100.0,13.3,1505.3,323.8,-0.7,1.8,2470.315,13.32,0.049,88.8
2020-08-15T09:19:03,42.805,6.029,0.047,-0.004,-0.012,102.0,110.0,100.0,13.3,1505.3,324.6,-0.7,1.8,2470.319,13.32,0.047,94.9
2020-08-15T09:22:02,42.805,6.029,0.064,-0.017,0.046,102.0,107.0,101.0,13.4,1505.3,326.3,-0.7,1.8,2470.312,13.32,0.066,104.9
2020-08-15T09:25:03,42.805,6.029,0.036,-0.026,0.009,102.0,106.0,100.0,13.3,1505.3,326.6,-0.7,1.8,2470.264,13.32,0.044,125.8
2020-08-15T09:28:02,42.805,6.029,0.057,-0.028,0.036,101.0,107.0,100.0,13.4,1505.3,326.8,-0.7,1.9,2470.328,13.32,0.063,116.2
2020-08-15T09:31:02,42.805,6.029,0.057,-0.013,0.029,101.0,105.0,100.0,13.4,1505.3,328.4,-0.7,1.8,2470.289,13.32,0.058,102.8
2020-08-15T09:34:03,42.805,6.029,0.058,-0.036,0.012,101.0,106.0,101.0,13.3,1505.3,323.3,-0.7,1.9,2470.278,13.32,0.068,121.8
2020-08-15T09:37:03,42.805,6.029,0.05,-0.014,0.006,101.0,105.0,100.0,13.4,1505.3,326.0,-0.7,1.9,2470.295,13.32,0.051,105.6
2020-08-15T09:40:03,42.805,6.029,0.051,-0.037,0.003,102.0,109.0,99.0,13.4,1505.3,324.6,-0.7,1.8,2470.268,13.32,0.063,126.0
2020-08-15T09:43:03,42.805,6.029,0.062,-0.002,-0.002,102.0,104.0,100.0,13.4,1505.3,325.9,-0.7,1.8,2470.303,13.32,0.062,91.8
2020-08-15T09:46:03,42.805,6.029,0.064,-0.032,0.018,103.0,104.0,100.0,13.3,1505.3,327.5,-0.7,1.8,2470.261,13.32,0.071,116.6
2020-08-15T09:49:03,42.805,6.029,0.043,-0.039,-0.026,102.0,108.0,100.0,13.4,1505.3,323.7,-0.7,1.8,2470.276,13.32,0.058,132.2
2020-08-15T09:52:02,42.805,6.029,0.04,-0.006,-0.036,102.0,108.0,100.0,13.3,1505.3,327.2,-0.7,1.8,2470.299,13.32,0.04,98.5
2020-08-15T09:55:03,42.805,6.029,0.042,-0.025,-0.017,102.0,107.0,100.0,13.4,1505.3,324.6,-0.7,1.8,2470.296,13.32,0.048,120.8
2020-08-15T09:58:03,42.805,6.029,0.025,-0.005,0.007,103.0,110.0,100.0,13.3,1505.3,324.7,-0.7,1.8,2470.349,13.32,0.025,101.3
2020-08-15T10:04:02,42.805,6.029,0.041,-0.026,-0.016,103.0,108.0,100.0,13.4,1505.2,327.5,-0.7,1.8,2470.354,13.3,0.048,122.4
2020-08-15T10:07:03,42.805,6.029,0.043,-0.009,0.027,102.0,107.0,100.0,13.4,1505.3,328.3,-0.7,1.8,2470.333,13.31,0.043,101.8